Regional Weather Roundup
Issued by NWS Northern Indiana

Home | Current Version | Previous Version | Text Only | Print | Product List | Glossary On
Versions: 1 2 3 4 5 6 7 8 9 10 11 12 13 14 15 16 17 18 19 20 21 22 23 24 25 26 27 28 29 30 31 32 33 34 35 36 37 38 39 40 41 42 43 44 45 46 47 48 49 50
000
ASUS43 KIWX 300300
RWRIWX

KIWX WEATHER ROUNDUP
NATIONAL WEATHER SERVICE NORTHERN INDIANA
1100 PM EDT TUE JUL 29 2014

NOTE: "FAIR" INDICATES FEW OR NO CLOUDS BELOW 12,000 FEET WITH NO
SIGNIFICANT WEATHER AND/OR OBSTRUCTIONS TO VISIBILITY.

* THESE STATIONS ARE NOT UNDER NWS QUALITY CONTROL. THEY ALSO MAY NOT
  REPORT WEATHER SUCH AS PRECIPITATION OR FOG.

INZ001>027-300400-
NORTHERN INDIANA

CITY           SKY/WX    TMP DP  RH WIND       PRES   REMARKS
GARY*          MOCLDY    69  58  68 SW3       30.02S
VALPARAISO     LGT RAIN  63  60  90 W3        30.02S
KNOX*          PTCLDY    62  56  83 SW5       30.01S
SOUTH BEND     PTCLDY    63  55  75 CALM      30.02R
GOSHEN         CLEAR     60  54  80 CALM      30.01S
MONTICELLO*    CLEAR     60  59  96 CALM      30.03R
WARSAW*        CLEAR     59  55  88 CALM      30.02S
ANGOLA*        CLEAR     55  46  71 CALM      30.01S
FORT WAYNE     PTCLDY    61  58  90 SW6       30.02S
PERU/GRISSOM   PTCLDY    59  59 100 SW6       30.03S

$$
INZ028>050-300400-
CENTRAL INDIANA

CITY           SKY/WX    TMP DP  RH WIND       PRES   REMARKS
LAFAYETTE      RAIN      59  59 100 W5        30.04R FOG
KOKOMO*        PTCLDY    59  55  88 SW3       30.04S
MUNCIE*        CLEAR     62  57  83 W7        30.05R
INDIANAPOLIS   CLOUDY    62  60  93 NE5       30.05R

$$
MIZ043>046-050>051-056>058-064>065-071>073-077>080-300400-
SOUTHWEST LOWER MICHIGAN

CITY           SKY/WX    TMP DP  RH WIND       PRES   REMARKS
BATTLE CREEK   PTCLDY    61  54  77 SW5       30.00R
BENTON HARBOR  PTCLDY    58  56  93 CALM      30.00R
COLDWATER*     CLEAR     57  55  94 CALM      30.00S
HILLSDALE*     PTCLDY    56  56 100 CALM      30.01S
HOLLAND        MOCLDY    62  58  86 W6        30.01R
GRAND RAPIDS   MOCLDY    65  57  75 W9        30.00R
KALAMAZOO      PTCLDY    61  55  81 S3        30.00R
STURGIS*       CLEAR     57  55  94 CALM      30.01R
THREE RIVERS*  FAIR      59  58  94 CALM      30.01R

$$
OHZ001>008-015>018-024>025-300400-
NORTHWEST OHIO

CITY           SKY/WX    TMP DP  RH WIND       PRES   REMARKS
DEFIANCE       CLEAR     60  57  89 CALM      30.01R
FINDLAY        MOCLDY    62  57  83 SW5       30.00S
TOLEDO EXPRESS PTCLDY    64  56  75 W6        29.99S
TOLEDO METCALF MOCLDY    66  55  67 W10       29.99S
LIMA           MOCLDY    64  57  78 SW9       30.02S

$$
&&


USA.gov is the U.S. government's official web portal to all federal, state and local government web resources and services.